Time,TemperatureF,DewpointF,PressureIn,WindDirection,WindDirectionDegrees,WindSpeedMPH,WindSpeedGustMPH,Humidity,HourlyPrecipIn,Conditions,Clouds,dailyrainin,SoftwareType,DateUTC
2013-08-06 00:09:00,75.6,65.5,30.04,North,0,0.0,0.0,71,0.00,,,0.00,WUHU216HW,2013-08-06 07:09:00,
2013-08-06 00:19:00,75.2,65.2,30.04,North,0,0.0,0.0,71,0.01,,,0.01,WUHU216HW,2013-08-06 07:19:00,
2013-08-06 00:29:00,75.1,65.4,30.04,North,0,0.0,0.0,72,0.01,,,0.01,WUHU216HW,2013-08-06 07:29:00,
2013-08-06 00:39:00,74.9,65.6,30.04,North,0,0.0,0.0,73,0.01,,,0.01,WUHU216HW,2013-08-06 07:39:00,
2013-08-06 00:49:00,74.7,65.5,30.04,North,0,0.0,0.0,73,0.01,,,0.01,WUHU216HW,2013-08-06 07:49:00,
2013-08-06 00:59:00,74.0,65.6,30.03,North,0,0.0,0.0,75,0.01,,,0.01,WUHU216HW,2013-08-06 07:59:00,
2013-08-06 01:09:00,73.8,65.4,30.03,North,0,0.0,0.0,75,0.01,,,0.01,WUHU216HW,2013-08-06 08:09:00,
2013-08-06 01:19:00,74.2,65.3,30.04,North,0,0.0,0.0,74,0.00,,,0.01,WUHU216HW,2013-08-06 08:19:00,
2013-08-06 01:29:00,74.3,65.9,30.03,North,0,0.0,0.0,75,0.00,,,0.01,WUHU216HW,2013-08-06 08:29:00,
2013-08-06 01:39:00,74.3,65.9,30.03,North,0,0.0,0.0,75,0.00,,,0.01,WUHU216HW,2013-08-06 08:39:00,
2013-08-06 01:49:00,74.2,65.8,30.03,North,0,0.0,0.0,75,0.01,,,0.01,WUHU216HW,2013-08-06 08:49:00,
2013-08-06 02:00:00,74.2,65.8,30.03,North,0,0.0,0.0,75,0.01,,,0.02,WUHU216HW,2013-08-06 09:00:00,
2013-08-06 02:10:00,74.0,65.6,30.03,North,0,0.0,0.0,75,0.01,,,0.02,WUHU216HW,2013-08-06 09:10:00,
2013-08-06 02:20:00,74.2,65.8,30.03,North,0,0.0,0.0,75,0.01,,,0.02,WUHU216HW,2013-08-06 09:20:00,
2013-08-06 02:31:00,74.2,66.2,30.03,North,0,0.0,0.0,76,0.01,,,0.02,WUHU216HW,2013-08-06 09:31:00,
2013-08-06 02:41:00,74.5,66.5,30.03,North,0,0.0,0.0,76,0.01,,,0.02,WUHU216HW,2013-08-06 09:41:00,
2013-08-06 02:51:00,74.2,66.2,30.03,North,0,0.0,0.0,76,0.00,,,0.02,WUHU216HW,2013-08-06 09:51:00,
2013-08-06 03:01:00,74.2,66.2,30.03,North,0,0.0,0.0,76,0.00,,,0.02,WUHU216HW,2013-08-06 10:01:00,
2013-08-06 03:11:00,74.0,66.3,30.02,North,0,0.0,0.0,77,0.00,,,0.02,WUHU216HW,2013-08-06 10:11:00,
2013-08-06 03:21:00,73.8,66.2,30.02,North,0,0.0,0.0,77,0.00,,,0.02,WUHU216HW,2013-08-06 10:21:00,
2013-08-06 03:31:00,73.8,66.6,30.01,North,0,0.0,0.0,78,0.00,,,0.02,WUHU216HW,2013-08-06 10:31:00,
2013-08-06 03:42:00,74.0,66.3,30.01,North,0,0.0,0.0,77,0.00,,,0.02,WUHU216HW,2013-08-06 10:42:00,
2013-08-06 03:52:00,74.2,66.5,30.01,North,0,0.0,0.0,77,0.00,,,0.02,WUHU216HW,2013-08-06 10:52:00,
2013-08-06 04:02:00,73.8,66.2,30.01,North,0,0.0,0.0,77,0.00,,,0.02,WUHU216HW,2013-08-06 11:02:00,
2013-08-06 04:12:00,73.4,65.8,30.01,North,0,0.0,0.0,77,0.00,,,0.02,WUHU216HW,2013-08-06 11:12:00,
2013-08-06 04:22:00,73.4,65.8,30.01,North,0,0.0,0.0,77,0.00,,,0.02,WUHU216HW,2013-08-06 11:22:00,
2013-08-06 04:32:00,73.4,65.8,30.02,North,0,0.0,0.0,77,0.00,,,0.02,WUHU216HW,2013-08-06 11:32:00,
2013-08-06 04:42:00,73.6,66.4,30.02,North,0,0.0,0.0,78,0.00,,,0.02,WUHU216HW,2013-08-06 11:42:00,
2013-08-06 04:52:00,73.6,66.4,30.02,North,0,0.0,0.0,78,0.00,,,0.02,WUHU216HW,2013-08-06 11:52:00,
2013-08-06 05:02:00,73.8,66.6,30.02,North,0,0.0,0.0,78,0.00,,,0.02,WUHU216HW,2013-08-06 12:02:00,
2013-08-06 05:12:00,74.0,66.7,30.03,North,0,0.0,0.0,78,0.00,,,0.02,WUHU216HW,2013-08-06 12:12:00,
2013-08-06 05:22:00,73.8,66.6,30.03,North,0,0.0,0.0,78,0.00,,,0.02,WUHU216HW,2013-08-06 12:22:00,
2013-08-06 05:32:00,73.8,66.6,30.03,North,0,0.0,0.0,78,0.00,,,0.02,WUHU216HW,2013-08-06 12:32:00,
2013-08-06 05:42:00,73.8,66.6,30.04,North,0,0.0,0.0,78,0.00,,,0.02,WUHU216HW,2013-08-06 12:42:00,
2013-08-06 05:52:00,73.8,66.6,30.04,North,0,0.0,0.0,78,0.00,,,0.02,WUHU216HW,2013-08-06 12:52:00,
2013-08-06 06:02:00,73.8,66.2,30.04,North,0,0.0,0.0,77,0.00,,,0.02,WUHU216HW,2013-08-06 13:02:00,
2013-08-06 06:12:00,74.0,66.3,30.04,North,0,0.0,0.0,77,0.00,,,0.02,WUHU216HW,2013-08-06 13:12:00,
2013-08-06 06:22:00,74.2,66.5,30.05,North,0,0.0,0.0,77,0.00,,,0.02,WUHU216HW,2013-08-06 13:22:00,
2013-08-06 06:32:00,74.5,66.9,30.05,North,0,0.0,0.0,77,0.00,,,0.02,WUHU216HW,2013-08-06 13:32:00,
2013-08-06 06:43:00,74.3,66.3,30.05,North,0,0.0,0.0,76,0.00,,,0.02,WUHU216HW,2013-08-06 13:43:00,
2013-08-06 06:53:00,74.3,66.3,30.05,North,0,0.0,0.0,76,0.00,,,0.02,WUHU216HW,2013-08-06 13:53:00,
2013-08-06 07:03:00,74.5,66.1,30.05,North,0,0.0,0.0,75,0.00,,,0.02,WUHU216HW,2013-08-06 14:03:00,
2013-08-06 07:13:00,75.1,66.6,30.05,North,0,0.0,0.0,75,0.00,,,0.02,WUHU216HW,2013-08-06 14:13:00,
2013-08-06 07:23:00,75.6,67.2,30.05,North,0,0.0,0.0,75,0.00,,,0.02,WUHU216HW,2013-08-06 14:23:00,
2013-08-06 07:33:00,76.5,67.6,30.05,North,0,0.0,0.0,74,0.00,,,0.02,WUHU216HW,2013-08-06 14:33:00,
2013-08-06 07:43:00,77.2,67.9,30.05,North,0,0.0,0.0,73,0.00,,,0.02,WUHU216HW,2013-08-06 14:43:00,
2013-08-06 07:53:00,77.8,67.6,30.06,North,0,0.0,0.0,71,0.00,,,0.02,WUHU216HW,2013-08-06 14:53:00,
2013-08-06 08:03:00,78.3,68.1,30.07,North,0,0.0,0.0,71,0.00,,,0.02,WUHU216HW,2013-08-06 15:03:00,
2013-08-06 08:13:00,78.5,67.5,30.07,North,0,0.0,0.0,69,0.00,,,0.02,WUHU216HW,2013-08-06 15:13:00,
2013-08-06 08:23:00,78.5,67.5,30.07,North,0,0.0,0.0,69,0.00,,,0.02,WUHU216HW,2013-08-06 15:23:00,
2013-08-06 08:33:00,79.2,67.7,30.06,North,0,0.0,0.0,68,0.00,,,0.02,WUHU216HW,2013-08-06 15:33:00,
2013-08-06 08:43:00,79.9,67.5,30.06,North,0,0.0,0.0,66,0.00,,,0.02,WUHU216HW,2013-08-06 15:43:00,
2013-08-06 08:53:00,80.3,67.9,30.07,North,0,0.0,0.0,66,0.00,,,0.02,WUHU216HW,2013-08-06 15:53:00,
2013-08-06 09:03:00,81.0,67.7,30.07,North,0,0.0,0.0,64,0.00,,,0.02,WUHU216HW,2013-08-06 16:03:00,
2013-08-06 09:14:00,81.2,66.9,30.07,North,0,0.0,0.0,62,0.00,,,0.02,WUHU216HW,2013-08-06 16:14:00,
2013-08-06 09:24:00,81.7,67.4,30.07,North,0,0.0,0.0,62,0.00,,,0.02,WUHU216HW,2013-08-06 16:24:00,
2013-08-06 09:34:00,82.4,67.6,30.07,North,0,0.0,0.0,61,0.00,,,0.02,WUHU216HW,2013-08-06 16:34:00,
2013-08-06 09:44:00,82.6,67.8,30.08,North,0,0.0,0.0,61,0.00,,,0.02,WUHU216HW,2013-08-06 16:44:00,
2013-08-06 09:54:00,83.3,68.5,30.08,North,0,0.0,0.0,61,0.00,,,0.02,WUHU216HW,2013-08-06 16:54:00,
2013-08-06 10:04:00,83.7,67.9,30.07,North,0,0.0,0.0,59,0.00,,,0.02,WUHU216HW,2013-08-06 17:04:00,
2013-08-06 10:14:00,84.2,68.4,30.07,North,0,0.0,0.0,59,0.00,,,0.02,WUHU216HW,2013-08-06 17:14:00,
2013-08-06 10:24:00,84.6,67.7,30.07,North,0,0.0,0.0,57,0.00,,,0.02,WUHU216HW,2013-08-06 17:24:00,
2013-08-06 10:34:00,84.6,67.1,30.07,North,0,0.0,0.0,56,0.00,,,0.02,WUHU216HW,2013-08-06 17:34:00,
2013-08-06 10:44:00,85.1,67.7,30.07,North,0,0.0,0.0,56,0.00,,,0.02,WUHU216HW,2013-08-06 17:44:00,
2013-08-06 10:54:00,85.7,67.6,30.06,North,0,0.0,0.0,55,0.00,,,0.02,WUHU216HW,2013-08-06 17:54:00,
2013-08-06 11:04:00,86.2,68.1,30.06,North,0,0.0,0.0,55,0.00,,,0.02,WUHU216HW,2013-08-06 18:04:00,
2013-08-06 11:14:00,85.9,67.2,30.06,North,0,0.0,0.0,54,0.00,,,0.02,WUHU216HW,2013-08-06 18:14:00,
2013-08-06 11:24:00,85.5,66.4,30.06,North,0,0.0,0.0,53,0.00,,,0.02,WUHU216HW,2013-08-06 18:24:00,
2013-08-06 11:34:00,86.0,66.9,30.05,North,0,0.0,0.0,53,0.00,,,0.02,WUHU216HW,2013-08-06 18:34:00,
2013-08-06 11:44:00,87.1,66.9,30.05,North,0,0.0,0.0,51,0.00,,,0.02,WUHU216HW,2013-08-06 18:44:00,
2013-08-06 11:54:00,87.8,66.3,30.05,North,0,0.0,0.0,49,0.00,,,0.02,WUHU216HW,2013-08-06 18:54:00,
2013-08-06 12:04:00,87.1,65.7,30.05,North,0,0.0,0.0,49,0.00,,,0.02,WUHU216HW,2013-08-06 19:04:00,
2013-08-06 12:14:00,87.1,65.7,30.04,North,0,0.0,0.0,49,0.00,,,0.02,WUHU216HW,2013-08-06 19:14:00,
2013-08-06 12:25:00,88.2,66.7,30.04,North,0,0.0,0.0,49,0.00,,,0.02,WUHU216HW,2013-08-06 19:25:00,
2013-08-06 12:35:00,88.9,66.7,30.03,North,0,0.0,0.0,48,0.00,,,0.02,WUHU216HW,2013-08-06 19:35:00,
2013-08-06 12:45:00,89.6,66.0,30.03,North,0,0.0,0.0,46,0.00,,,0.02,WUHU216HW,2013-08-06 19:45:00,
2013-08-06 12:55:00,89.6,66.6,30.03,North,0,0.0,0.0,47,0.00,,,0.02,WUHU216HW,2013-08-06 19:55:00,
2013-08-06 13:05:00,88.0,65.9,30.04,North,0,0.0,0.0,48,0.00,,,0.02,WUHU216HW,2013-08-06 20:05:00,
2013-08-06 13:15:00,86.4,65.7,30.04,North,0,0.0,0.0,50,0.00,,,0.02,WUHU216HW,2013-08-06 20:15:00,
2013-08-06 13:25:00,85.5,65.3,30.04,North,0,0.0,0.0,51,0.00,,,0.02,WUHU216HW,2013-08-06 20:25:00,
2013-08-06 13:35:00,84.2,65.8,30.04,North,0,0.0,0.0,54,0.00,,,0.02,WUHU216HW,2013-08-06 20:35:00,
2013-08-06 13:45:00,82.8,65.4,30.04,North,0,0.0,0.0,56,0.00,,,0.02,WUHU216HW,2013-08-06 20:45:00,
2013-08-06 13:55:00,81.9,64.5,30.04,North,0,0.0,0.0,56,0.00,,,0.02,WUHU216HW,2013-08-06 20:55:00,
2013-08-06 14:05:00,81.5,65.8,30.04,North,0,0.0,0.0,59,0.00,,,0.02,WUHU216HW,2013-08-06 21:05:00,
2013-08-06 14:15:00,81.2,67.8,30.04,North,0,0.0,0.0,64,0.00,,,0.02,WUHU216HW,2013-08-06 21:15:00,
2013-08-06 14:25:00,81.0,67.2,30.04,North,0,0.0,0.0,63,0.00,,,0.02,WUHU216HW,2013-08-06 21:25:00,
2013-08-06 14:35:00,81.0,67.2,30.04,North,0,0.0,0.0,63,0.00,,,0.02,WUHU216HW,2013-08-06 21:35:00,
2013-08-06 14:46:00,81.0,66.8,30.04,North,0,0.0,0.0,62,0.00,,,0.02,WUHU216HW,2013-08-06 21:46:00,
2013-08-06 14:56:00,81.2,66.0,30.04,North,0,0.0,0.0,60,0.01,,,0.03,WUHU216HW,2013-08-06 21:56:00,
2013-08-06 15:06:00,81.7,66.5,30.03,North,0,0.0,0.0,60,0.01,,,0.03,WUHU216HW,2013-08-06 22:06:00,
2013-08-06 15:16:00,82.4,66.1,30.03,North,0,0.0,0.0,58,0.01,,,0.03,WUHU216HW,2013-08-06 22:16:00,
2013-08-06 15:26:00,82.4,66.1,30.03,North,0,0.0,0.0,58,0.01,,,0.03,WUHU216HW,2013-08-06 22:26:00,
2013-08-06 15:36:00,83.3,66.5,30.04,North,0,0.0,0.0,57,0.01,,,0.03,WUHU216HW,2013-08-06 22:36:00,
2013-08-06 15:46:00,84.1,66.7,30.04,North,0,0.0,0.0,56,0.00,,,0.03,WUHU216HW,2013-08-06 22:46:00,
2013-08-06 15:56:00,84.1,66.2,30.03,North,0,0.0,0.0,55,0.00,,,0.03,WUHU216HW,2013-08-06 22:56:00,
2013-08-06 16:06:00,84.2,65.8,30.03,North,0,0.0,0.0,54,0.00,,,0.03,WUHU216HW,2013-08-06 23:06:00,
2013-08-06 16:16:00,83.9,65.4,30.03,North,0,0.0,0.0,54,0.00,,,0.03,WUHU216HW,2013-08-06 23:16:00,
2013-08-06 16:26:00,83.9,64.9,30.03,North,0,0.0,0.0,53,0.00,,,0.03,WUHU216HW,2013-08-06 23:26:00,
2013-08-06 16:36:00,84.1,65.1,30.03,North,0,0.0,0.0,53,0.00,,,0.03,WUHU216HW,2013-08-06 23:36:00,
2013-08-06 16:46:00,84.6,65.1,30.02,North,0,0.0,0.0,52,0.00,,,0.03,WUHU216HW,2013-08-06 23:46:00,
2013-08-06 16:56:00,85.3,65.3,30.02,North,0,0.0,0.0,51,0.00,,,0.03,WUHU216HW,2013-08-06 23:56:00,
2013-08-06 17:06:00,85.3,64.7,30.02,North,0,0.0,0.0,50,0.00,,,0.03,WUHU216HW,2013-08-07 00:06:00,
2013-08-06 17:16:00,85.7,65.0,30.01,North,0,0.0,0.0,50,0.00,,,0.03,WUHU216HW,2013-08-07 00:16:00,
2013-08-06 17:26:00,85.5,64.3,30.00,North,0,0.0,0.0,49,0.00,,,0.03,WUHU216HW,2013-08-07 00:26:00,
2013-08-06 17:37:00,85.7,65.0,30.00,North,0,0.0,0.0,50,0.00,,,0.03,WUHU216HW,2013-08-07 00:37:00,
2013-08-06 17:47:00,85.7,65.0,30.00,North,0,0.0,0.0,50,0.00,,,0.03,WUHU216HW,2013-08-07 00:47:00,
2013-08-06 17:57:00,85.5,64.9,30.00,North,0,0.0,0.0,50,0.00,,,0.03,WUHU216HW,2013-08-07 00:57:00,
2013-08-06 18:07:00,85.3,64.1,30.00,North,0,0.0,0.0,49,0.00,,,0.03,WUHU216HW,2013-08-07 01:07:00,
2013-08-06 18:17:00,85.1,62.6,30.00,North,0,0.0,0.0,47,0.00,,,0.03,WUHU216HW,2013-08-07 01:17:00,
2013-08-06 18:27:00,84.8,61.7,30.00,North,0,0.0,0.0,46,0.00,,,0.03,WUHU216HW,2013-08-07 01:27:00,
2013-08-06 18:37:00,84.6,62.2,30.00,North,0,0.0,0.0,47,0.00,,,0.03,WUHU216HW,2013-08-07 01:37:00,
2013-08-06 18:47:00,84.1,61.0,30.00,North,0,0.0,0.0,46,0.00,,,0.03,WUHU216HW,2013-08-07 01:47:00,
2013-08-06 18:57:00,83.3,60.9,30.00,North,0,0.0,0.0,47,0.00,,,0.03,WUHU216HW,2013-08-07 01:57:00,
2013-08-06 19:07:00,82.8,60.4,30.01,North,0,0.0,0.0,47,0.00,,,0.03,WUHU216HW,2013-08-07 02:07:00,
2013-08-06 19:17:00,82.1,59.8,30.00,North,0,0.0,0.0,47,0.00,,,0.03,WUHU216HW,2013-08-07 02:17:00,
2013-08-06 19:27:00,81.9,60.2,30.00,North,0,0.0,0.0,48,0.00,,,0.03,WUHU216HW,2013-08-07 02:27:00,
2013-08-06 19:37:00,81.7,60.7,30.00,North,0,0.0,0.0,49,0.00,,,0.03,WUHU216HW,2013-08-07 02:37:00,
2013-08-06 19:47:00,81.4,60.3,30.00,North,0,0.0,0.0,49,0.00,,,0.03,WUHU216HW,2013-08-07 02:47:00,
2013-08-06 19:57:00,81.0,60.7,30.00,North,0,0.0,0.0,50,0.00,,,0.03,WUHU216HW,2013-08-07 02:57:00,
2013-08-06 20:07:00,80.8,61.0,30.01,North,0,0.0,0.0,51,0.00,,,0.03,WUHU216HW,2013-08-07 03:07:00,
2013-08-06 20:17:00,80.5,60.7,30.00,North,0,0.0,0.0,51,0.00,,,0.03,WUHU216HW,2013-08-07 03:17:00,
2013-08-06 20:27:00,80.1,60.8,30.01,North,0,0.0,0.0,52,0.00,,,0.03,WUHU216HW,2013-08-07 03:27:00,
2013-08-06 20:37:00,79.6,61.9,30.01,North,0,0.0,0.0,55,0.00,,,0.03,WUHU216HW,2013-08-07 03:37:00,
2013-08-06 20:48:00,79.4,62.3,30.02,North,0,0.0,0.0,56,0.00,,,0.03,WUHU216HW,2013-08-07 03:48:00,
2013-08-06 20:58:00,79.0,62.5,30.02,North,0,0.0,0.0,57,0.00,,,0.03,WUHU216HW,2013-08-07 03:58:00,
2013-08-06 21:08:00,78.8,62.8,30.03,North,0,0.0,0.0,58,0.00,,,0.03,WUHU216HW,2013-08-07 04:08:00,
2013-08-06 21:18:00,78.5,63.0,30.03,North,0,0.0,0.0,59,0.00,,,0.03,WUHU216HW,2013-08-07 04:18:00,
2013-08-06 21:28:00,78.5,63.0,30.03,North,0,0.0,0.0,59,0.00,,,0.03,WUHU216HW,2013-08-07 04:28:00,
2013-08-06 21:38:00,78.5,63.0,30.03,North,0,0.0,0.0,59,0.00,,,0.03,WUHU216HW,2013-08-07 04:38:00,
2013-08-06 21:48:00,77.9,63.0,30.03,North,0,0.0,0.0,60,0.00,,,0.03,WUHU216HW,2013-08-07 04:48:00,
2013-08-06 21:58:00,77.6,63.1,30.03,North,0,0.0,0.0,61,0.00,,,0.03,WUHU216HW,2013-08-07 04:58:00,
2013-08-06 22:08:00,77.2,63.2,30.03,North,0,0.0,0.0,62,0.00,,,0.03,WUHU216HW,2013-08-07 05:08:00,
2013-08-06 22:18:00,77.0,63.5,30.03,North,0,0.0,0.0,63,0.00,,,0.03,WUHU216HW,2013-08-07 05:18:00,
2013-08-06 22:28:00,76.7,63.1,30.04,North,0,0.0,0.0,63,0.00,,,0.03,WUHU216HW,2013-08-07 05:28:00,
2013-08-06 22:38:00,76.5,63.4,30.04,North,0,0.0,0.0,64,0.00,,,0.03,WUHU216HW,2013-08-07 05:38:00,
2013-08-06 22:48:00,76.7,63.5,30.04,North,0,0.0,0.0,64,0.00,,,0.03,WUHU216HW,2013-08-07 05:48:00,
2013-08-06 22:58:00,76.3,63.6,30.04,North,0,0.0,0.0,65,0.00,,,0.03,WUHU216HW,2013-08-07 05:58:00,
2013-08-06 23:08:00,76.0,63.4,30.04,North,0,0.0,0.0,65,0.00,,,0.03,WUHU216HW,2013-08-07 06:08:00,
2013-08-06 23:18:00,75.6,63.5,30.04,North,0,0.0,0.0,66,0.00,,,0.03,WUHU216HW,2013-08-07 06:18:00,
2013-08-06 23:28:00,75.4,63.3,30.04,North,0,0.0,0.0,66,0.00,,,0.03,WUHU216HW,2013-08-07 06:28:00,
2013-08-06 23:38:00,75.2,63.1,30.04,North,0,0.0,0.0,66,0.00,,,0.03,WUHU216HW,2013-08-07 06:38:00,
2013-08-06 23:49:00,74.9,63.2,30.04,North,0,0.0,0.0,67,0.00,,,0.03,WUHU216HW,2013-08-07 06:49:00,
2013-08-06 23:59:00,74.9,63.6,30.04,North,0,0.0,0.0,68,0.00,,,0.03,WUHU216HW,2013-08-07 06:59:00,